Date,TemperatureHighF,TemperatureAvgF,TemperatureLowF,DewpointHighF,DewpointAvgF,DewpointLowF,HumidityHigh,HumidityAvg,HumidityLow,PressureMaxIn,PressureMinIn,WindSpeedMaxMPH,WindSpeedAvgMPH,GustSpeedMaxMPH,PrecipitationSumIn
2013-1-1,38.5,32.7,28.4,32.6,29.7,26.6,93,89,77,30.50,30.35,2,0,4,0.02
2013-1-2,47.1,38.2,32.9,30.8,24.0,18.3,86,58,38,30.33,30.15,5,2,7,0.00
2013-1-3,45.1,37.4,32.2,33.5,19.9,16.2,91,51,34,30.15,30.05,8,4,14,0.06
2013-1-4,47.9,42.0,36.8,42.9,39.3,34.7,93,90,80,30.27,30.10,9,2,10,0.01
2013-1-5,42.1,40.8,37.8,36.3,33.6,30.1,90,76,65,30.16,30.05,6,2,11,0.11
2013-1-6,42.6,39.8,37.6,38.2,36.9,35.4,93,89,81,30.13,29.94,7,3,9,0.32
2013-1-7,47.6,43.7,39.3,46.0,41.8,37.2,94,93,91,30.09,29.76,9,3,13,0.89
2013-1-8,49.4,44.2,39.5,47.8,42.2,37.4,94,93,91,30.10,29.65,14,4,18,0.72
2013-1-9,48.8,38.1,32.9,46.9,36.2,31.1,94,93,92,29.91,29.57,7,2,25,1.30
2013-1-10,33.7,33.5,33.4,32.0,31.9,31.9,94,94,93,29.95,29.91,3,2,3,0.00
2013-1-11,34.6,29.6,25.4,32.0,27.5,23.1,93,92,89,30.34,30.27,2,0,3,0.07
2013-1-12,32.8,27.7,24.7,27.0,23.7,21.9,90,85,71,30.44,30.32,5,1,6,0.06
2013-1-13,33.1,27.8,24.1,26.7,23.5,21.1,89,84,72,30.50,30.45,2,0,3,0.02
2013-1-14,32.9,31.2,29.0,31.1,28.4,25.4,93,89,85,30.56,30.48,2,0,3,0.03
2013-1-15,40.8,34.9,31.0,37.8,31.6,28.4,94,88,72,30.70,30.57,2,0,3,0.01
2013-1-16,40.2,32.4,27.8,33.2,29.3,25.8,93,88,74,30.68,30.52,2,0,5,0.00
2013-1-17,40.9,33.3,27.5,34.3,30.5,25.8,93,90,77,30.52,30.27,4,1,4,0.01
2013-1-18,33.7,30.3,27.5,31.4,28.3,25.5,93,92,91,30.35,30.25,2,0,5,0.01
2013-1-19,30.1,27.4,24.7,28.3,25.4,22.5,93,92,91,30.40,30.34,2,0,2,0.02
2013-1-20,32.2,27.7,22.9,30.4,25.7,20.4,94,92,90,30.41,30.27,2,0,2,0.01
2013-1-21,30.3,26.4,22.1,28.5,24.3,19.4,93,91,89,30.27,30.15,2,0,2,0.00
2013-1-22,40.8,32.6,24.7,38.3,30.4,22.5,94,92,66,30.16,29.85,2,0,5,0.00
2013-1-23,43.9,40.1,36.9,37.8,32.4,24.5,93,75,46,30.05,29.78,8,2,12,0.42
2013-1-24,43.5,40.2,38.6,38.2,36.5,34.3,94,87,73,30.17,29.99,6,2,14,0.18
2013-1-25,48.3,43.4,39.3,42.8,40.2,36.0,94,89,77,29.99,29.86,11,2,12,0.04
2013-1-26,40.1,38.1,35.9,37.0,35.6,34.1,93,91,82,29.95,29.81,6,2,10,0.98
2013-1-27,39.8,37.9,35.6,38.2,36.2,33.8,94,94,93,30.00,29.94,6,2,9,0.43
2013-1-28,37.3,35.9,33.8,35.7,34.4,32.3,94,94,94,30.03,29.95,3,2,7,1.99
2013-1-29,43.6,40.5,38.3,42.3,39.0,36.7,95,94,94,30.29,30.04,6,2,7,1.34
2013-1-30,47.4,44.4,41.8,46.0,42.9,40.2,95,95,94,30.33,30.29,5,1,8,0.19
2013-1-31,45.5,44.8,44.1,43.9,43.2,42.4,95,94,92,30.32,30.25,6,2,12,0.19
2013-2-1,50.2,43.8,38.6,44.6,41.2,36.8,95,91,74,30.36,30.27,2,1,2,0.05
2013-2-2,39.3,36.6,32.4,37.7,35.0,30.6,94,94,93,30.34,30.23,3,0,3,0.02
2013-2-3,44.9,41.0,33.8,43.2,39.4,32.3,95,94,91,30.26,30.16,5,2,8,0.18
2013-2-4,48.5,44.0,41.9,42.4,40.8,39.5,94,89,79,30.15,29.81,5,1,11,0.00
2013-2-5,47.4,43.9,42.2,42.1,40.2,38.6,93,87,73,29.84,29.75,8,4,14,0.15
2013-2-6,45.7,43.2,41.9,38.9,37.4,35.4,88,80,67,29.98,29.71,13,5,14,0.04
2013-2-7,47.6,40.9,33.8,38.3,35.1,30.6,91,80,63,30.14,29.73,12,3,12,0.25
2013-2-8,40.5,35.6,29.8,34.6,32.3,28.0,93,88,78,30.28,30.15,2,1,6,0.01
2013-2-9,41.1,38.3,36.5,39.0,36.2,34.0,94,92,88,30.30,30.23,2,0,3,0.08
2013-2-10,42.9,37.9,32.4,36.6,34.6,30.6,94,88,76,30.35,30.29,3,0,4,0.00
2013-2-11,41.1,39.1,37.0,38.7,36.8,34.6,93,91,89,30.33,30.29,5,1,6,0.04
2013-2-12,46.7,43.6,40.1,43.5,41.0,37.7,93,91,83,30.36,30.24,6,2,11,0.01
2013-2-13,46.5,43.5,40.6,43.0,40.6,38.5,92,89,83,30.45,30.25,2,0,6,0.17
2013-2-14,47.1,43.2,40.5,41.9,40.2,38.1,94,89,78,30.53,30.45,3,1,7,0.07
2013-2-15,53.6,43.4,36.8,43.2,39.3,35.2,94,86,67,30.51,30.15,5,1,7,0.00
2013-2-16,45.1,42.4,39.8,42.5,39.7,36.4,94,90,81,30.14,30.05,4,1,10,1.38
2013-2-17,41.3,38.6,36.0,37.5,35.7,31.9,93,89,83,30.20,30.09,5,1,6,0.16
2013-2-18,42.9,37.9,33.2,35.2,32.5,29.8,88,81,73,30.07,29.70,5,2,6,0.00
2013-2-19,48.2,40.1,34.7,33.8,32.1,29.8,91,74,53,29.93,29.67,6,1,7,0.00
2013-2-20,42.2,37.8,34.9,36.5,34.3,32.5,91,87,74,29.99,29.94,3,1,10,0.01
2013-2-21,39.8,38.4,36.6,38.2,36.2,33.4,94,92,86,30.01,29.95,6,2,12,0.13
2013-2-22,43.1,38.8,33.2,39.2,36.5,31.1,94,91,84,29.99,29.60,11,4,22,0.51
2013-2-23,44.1,38.6,35.8,38.1,34.9,33.5,93,87,68,30.33,29.84,5,1,9,0.57
2013-2-24,43.2,40.2,36.6,35.8,34.5,33.4,90,80,71,30.34,29.92,12,4,14,0.01
2013-2-25,47.7,41.3,38.3,39.0,34.5,28.0,93,78,48,30.25,29.83,9,3,13,0.12
2013-2-26,44.5,40.2,35.0,34.0,31.6,29.4,86,72,55,30.32,30.15,7,2,12,0.03
2013-2-27,48.8,41.9,38.5,39.6,36.6,32.5,92,83,56,30.26,30.16,5,1,11,0.29
2013-2-28,50.4,44.0,39.3,48.2,41.9,37.2,93,92,91,30.24,30.14,13,4,13,0.38
2013-3-1,55.1,52.7,50.5,49.0,47.2,45.3,93,82,74,30.26,30.20,12,5,18,0.00
2013-3-2,54.5,47.3,37.5,44.8,41.3,34.6,93,80,69,30.19,29.97,9,4,14,0.38
2013-3-3,45.4,37.8,33.1,38.7,34.1,29.9,93,87,60,30.29,30.12,5,1,7,0.28
2013-3-4,51.7,39.5,30.1,32.4,28.0,23.9,91,66,36,30.28,29.88,7,2,11,0.01
2013-3-5,53.8,44.9,40.8,35.6,29.3,23.0,81,55,38,29.86,29.66,3,1,12,0.00
2013-3-6,41.2,39.0,37.3,39.3,36.1,32.7,93,89,80,29.82,29.51,3,0,10,0.49
2013-3-7,46.8,40.1,36.3,42.5,37.7,34.5,93,91,84,30.05,29.84,7,3,11,0.21
2013-3-8,50.2,39.9,33.4,39.3,35.3,31.6,93,84,63,30.18,30.02,3,0,7,0.01
2013-3-9,52.9,42.2,34.4,38.5,35.3,31.7,91,77,58,30.46,30.20,5,1,11,0.00
2013-3-10,45.2,41.5,38.0,37.8,35.5,33.3,88,79,67,30.45,30.39,6,1,7,0.00
2013-3-11,52.5,44.4,36.6,42.0,37.5,34.4,92,78,51,30.40,30.11,5,1,10,0.01
2013-3-12,50.2,48.9,46.5,47.7,45.6,40.0,93,88,77,30.08,29.98,8,4,14,0.60
2013-3-13,51.0,50.1,49.1,49.0,47.6,46.4,93,91,86,30.11,30.01,8,3,12,0.37
2013-3-14,52.0,49.1,46.7,49.2,45.7,42.2,93,88,82,30.06,29.95,6,2,10,0.03
2013-3-15,56.5,50.6,46.4,47.7,45.8,43.6,93,84,66,30.14,30.06,6,2,6,0.00
2013-3-16,48.6,42.5,33.7,44.5,39.0,31.9,93,88,73,30.05,29.81,8,2,11,0.41
2013-3-17,43.9,38.1,33.1,36.8,34.8,30.8,94,88,68,30.15,29.90,3,1,5,0.24
2013-3-18,48.8,40.3,33.5,37.7,32.9,28.5,93,77,46,30.21,30.07,10,2,16,0.17
2013-3-19,53.2,41.4,33.7,38.6,31.3,23.2,89,71,31,30.20,29.55,16,4,19,0.12
2013-3-20,50.5,43.0,32.9,45.4,39.1,30.8,93,86,71,29.93,29.30,14,6,25,1.10
2013-3-21,43.1,37.1,33.2,38.3,33.5,29.5,93,87,73,30.16,29.95,6,1,9,0.22
2013-3-22,42.8,36.8,32.5,34.7,31.1,28.8,93,80,58,30.36,30.17,4,2,8,0.24
2013-3-23,49.2,38.4,30.4,31.1,27.2,23.9,89,67,37,30.39,30.27,6,2,6,0.00
2013-3-24,55.7,41.5,32.4,32.0,28.5,24.0,83,63,29,30.27,30.08,5,2,8,0.00
2013-3-25,59.3,47.1,36.9,33.2,28.8,24.7,67,51,30,30.10,29.86,6,1,7,0.02
2013-3-26,57.8,48.7,41.2,38.8,34.5,30.1,72,58,44,29.94,29.87,7,1,10,0.00
2013-3-27,54.7,47.6,41.6,43.0,39.6,37.1,85,74,61,29.90,29.85,2,0,2,0.00
2013-3-28,59.9,50.0,42.2,46.8,41.8,36.8,92,74,54,30.05,29.91,9,1,12,0.11
2013-3-29,60.2,49.1,40.6,44.5,42.1,38.7,93,78,51,30.17,30.07,10,2,10,0.01
2013-3-30,65.8,51.5,40.8,45.7,41.4,37.9,90,71,42,30.19,30.00,5,1,10,0.00
2013-3-31,67.1,53.1,41.9,46.8,41.9,36.8,82,67,46,29.99,29.80,4,1,6,0.00
2013-4-1,61.2,52.7,43.5,47.2,43.9,39.9,90,72,60,30.05,29.85,10,1,12,0.00
2013-4-2,52.0,49.4,46.7,46.3,44.9,43.6,92,84,76,30.12,30.06,6,1,6,0.03
2013-4-3,60.5,51.3,44.6,46.1,44.1,42.7,93,78,53,30.11,29.87,6,1,7,0.00
2013-4-4,54.2,51.4,47.9,51.3,46.2,39.6,92,83,69,29.85,29.53,7,2,12,0.34
2013-4-5,55.6,50.8,46.8,48.6,46.5,44.0,93,86,69,29.76,29.61,8,3,11,1.03
2013-4-6,49.4,46.3,43.5,44.3,41.5,37.6,90,83,74,29.83,29.58,11,4,13,0.28
2013-4-7,43.2,40.9,38.0,40.5,38.4,36.2,93,91,82,29.80,29.41,5,1,11,1.41
2013-4-8,52.3,44.5,40.6,43.4,41.0,38.7,94,88,70,30.21,29.80,5,1,5,0.20
2013-4-9,52.6,47.6,42.3,42.3,40.8,39.6,90,78,66,30.29,30.13,6,2,8,0.00
2013-4-10,54.5,48.9,45.2,47.7,43.1,38.9,93,81,65,30.17,29.82,11,2,16,0.27
2013-4-11,51.3,46.4,38.5,40.4,37.3,33.9,86,71,57,30.22,30.16,4,1,11,0.01
2013-4-12,45.8,40.0,36.6,38.1,36.2,34.0,92,86,71,30.16,29.60,8,3,10,0.33
2013-4-13,43.6,39.1,35.5,41.4,36.2,31.5,93,89,81,29.93,29.71,6,2,8,0.37
2013-4-14,49.9,42.2,36.0,39.2,36.5,33.8,94,81,60,29.96,29.84,6,1,8,0.19
2013-4-15,51.9,42.5,37.8,39.3,37.1,35.2,92,82,56,30.12,29.88,7,1,12,0.11
2013-4-16,54.5,42.6,34.4,38.3,35.5,31.3,92,78,41,30.35,30.13,6,2,6,0.11
2013-4-17,57.8,46.8,37.6,40.1,35.5,31.7,88,67,37,30.40,30.34,7,3,7,0.00
2013-4-18,47.6,44.4,41.5,44.3,40.0,36.5,93,84,74,30.41,30.19,7,2,8,0.31
2013-4-19,50.8,48.3,46.4,48.8,46.6,44.5,94,94,93,30.15,29.99,5,1,6,0.73
2013-4-20,52.2,47.0,44.9,47.7,44.5,42.7,94,91,80,30.22,30.12,2,0,2,0.47
2013-4-21,50.7,44.6,40.6,44.8,41.0,36.8,93,88,70,30.31,30.17,4,0,8,0.45
2013-4-22,58.0,46.2,35.3,39.4,33.5,23.5,93,66,32,30.49,30.33,5,1,10,0.00
2013-4-23,60.7,48.4,37.0,38.4,34.1,28.2,84,61,29,30.38,30.18,10,3,11,0.00
2013-4-24,66.6,53.5,40.3,39.3,35.2,29.2,83,54,25,30.25,29.97,7,2,12,0.00
2013-4-25,69.4,56.1,43.3,43.2,37.5,33.5,70,52,32,30.03,29.94,5,1,10,0.00
2013-4-26,64.5,53.5,43.6,48.2,44.0,37.8,90,71,55,30.15,30.04,6,1,8,0.00
2013-4-27,54.4,51.8,48.2,46.9,41.3,35.9,93,68,51,30.13,30.05,10,2,12,0.35
2013-4-28,53.6,48.2,44.2,46.4,43.5,39.7,94,84,66,30.15,29.88,6,1,7,0.21
2013-4-29,53.5,45.8,39.9,43.2,33.5,26.7,91,65,38,30.09,29.83,11,3,18,0.12
2013-4-30,51.3,42.9,34.7,39.1,31.8,22.7,91,67,33,30.40,30.09,8,2,12,0.12
2013-5-1,62.0,48.3,34.3,37.4,33.4,29.7,83,59,35,30.54,30.42,8,2,13,0.00
2013-5-2,64.5,52.5,41.5,43.2,38.5,34.8,80,60,42,30.48,30.30,7,1,12,0.00
2013-5-3,67.6,54.6,42.1,48.0,42.3,38.5,87,65,45,30.32,30.14,7,2,10,0.00
2013-5-4,76.0,60.3,46.0,47.7,42.7,38.7,89,57,26,30.14,29.89,9,2,16,0.00
2013-5-5,79.4,65.5,51.7,50.0,44.9,39.5,65,49,31,29.87,29.62,8,2,10,0.00
2013-5-6,82.0,68.4,55.7,50.6,44.0,38.1,57,42,28,29.69,29.59,8,2,8,0.00
2013-5-7,69.9,59.0,51.1,52.8,49.0,44.8,87,70,52,29.87,29.66,6,2,10,0.00
2013-5-8,64.7,54.6,49.5,52.7,49.4,47.0,92,83,65,30.04,29.88,5,0,5,0.00
2013-5-9,66.0,55.1,46.4,54.1,49.0,44.5,94,81,54,30.13,30.02,7,2,10,0.00
2013-5-10,73.9,60.7,49.1,54.7,50.3,46.8,93,71,43,30.09,30.00,7,1,10,0.00
2013-5-11,81.4,64.8,54.1,52.7,50.3,46.0,83,62,36,30.04,29.85,4,1,9,0.00
2013-5-12,67.1,61.6,56.9,56.7,54.2,50.4,93,77,59,29.97,29.86,6,2,13,0.17
2013-5-13,59.8,54.8,47.7,54.7,49.7,40.6,91,83,65,30.09,29.81,7,2,20,0.14
2013-5-14,61.5,52.5,46.0,42.0,40.0,37.7,82,64,42,30.16,30.03,7,1,8,0.00
2013-5-15,63.2,52.1,44.6,47.7,42.7,38.0,92,72,49,30.04,29.92,6,2,11,0.10
2013-5-16,50.4,50.3,50.2,48.5,48.2,47.7,93,92,91,29.91,29.88,3,2,6,0.01
2013-5-18,53.1,52.6,52.0,47.3,46.6,45.4,84,80,75,30.18,30.15,0,0,1,0.00
2013-5-19,60.5,52.9,49.1,49.5,47.6,44.5,93,83,61,30.33,30.19,4,0,6,0.06
2013-5-20,65.8,53.1,44.6,49.2,46.0,42.4,93,78,53,30.28,29.81,8,1,11,0.00
2013-5-21,51.4,47.4,44.6,48.0,44.6,42.7,93,90,80,29.80,29.69,2,0,9,0.93
2013-5-22,49.6,45.7,43.3,45.6,42.9,41.4,93,90,84,29.86,29.77,3,1,6,0.15
2013-5-23,55.9,47.0,41.9,46.9,43.1,40.0,93,87,64,29.95,29.86,8,1,9,0.06
2013-5-24,59.6,50.7,42.9,46.2,43.8,41.0,93,78,59,29.95,29.89,5,1,8,0.00
2013-5-25,60.5,53.2,47.6,46.3,44.5,41.3,91,74,49,29.95,29.89,5,1,10,0.03
2013-5-26,59.9,53.3,47.6,53.3,47.9,44.2,90,82,68,29.90,29.84,6,1,8,0.07
2013-5-27,58.0,53.7,49.8,51.9,50.0,47.6,93,87,75,29.86,29.60,9,3,12,0.16
2013-5-28,59.3,53.7,50.1,50.2,48.5,46.5,93,83,66,29.78,29.66,5,2,12,0.07
2013-5-29,51.6,50.1,48.5,48.8,47.3,45.8,93,90,82,29.87,29.56,3,0,8,0.49
2013-5-30,59.2,51.7,46.7,48.3,45.9,44.2,93,81,60,30.14,29.88,6,2,11,0.07
2013-5-31,63.4,54.9,49.1,46.7,44.4,41.4,85,69,45,30.27,30.16,6,1,12,0.00
2013-6-1,68.1,57.3,48.0,49.3,46.4,43.6,87,68,48,30.16,29.94,3,1,10,0.00
2013-6-2,64.8,56.7,50.8,49.7,47.9,46.3,93,74,54,29.99,29.93,5,1,12,0.03
2013-6-3,68.3,57.2,49.2,52.0,48.5,45.2,87,74,56,30.01,29.94,5,1,9,0.00
2013-6-4,76.1,61.7,49.4,54.9,50.6,45.1,92,69,42,30.01,29.89,10,2,11,0.00
2013-6-5,72.3,62.4,53.2,56.2,51.7,44.4,83,69,56,29.97,29.90,10,2,12,0.00
2013-6-6,74.6,61.6,50.2,55.5,48.3,37.4,91,65,38,29.93,29.89,11,1,11,0.00
2013-6-7,62.7,57.3,52.5,49.9,44.2,39.0,79,62,47,30.05,29.89,10,1,10,0.00
2013-6-8,62.7,55.6,49.5,50.4,46.3,43.8,82,71,60,30.08,30.01,5,1,8,0.00
2013-6-9,63.9,55.2,49.5,46.5,44.8,41.9,87,69,49,30.02,29.94,7,1,8,0.00
2013-6-10,66.1,54.8,45.7,48.0,44.5,41.4,90,70,44,29.94,29.77,6,1,10,0.00
2013-6-11,58.6,53.2,50.5,52.1,46.2,43.3,88,77,57,30.00,29.82,6,1,10,0.08
2013-6-12,63.1,55.8,49.2,48.9,45.5,42.1,89,70,47,30.05,30.00,11,3,11,0.04
2013-6-13,62.0,55.5,50.5,51.2,48.7,46.9,91,79,64,30.12,30.03,6,1,8,0.04
2013-6-14,64.2,55.9,50.4,49.6,47.0,45.4,88,73,56,30.14,29.98,8,1,9,0.00
2013-6-15,72.3,59.4,46.8,54.5,50.2,44.3,91,73,52,29.96,29.79,6,2,10,0.00
2013-6-16,69.1,61.3,54.5,59.3,53.7,50.7,91,77,58,29.96,29.85,5,1,10,0.05
2013-6-17,74.7,61.4,51.3,54.9,51.0,47.4,92,72,38,29.97,29.75,5,1,10,0.15
2013-6-18,69.4,60.0,54.2,52.4,49.8,45.2,91,71,42,29.85,29.74,5,1,10,0.00
2013-6-19,64.2,56.8,52.3,52.5,49.8,47.0,91,78,61,29.90,29.78,7,1,10,0.37
2013-6-20,55.1,52.7,51.0,51.9,50.3,48.0,93,92,77,30.02,29.85,4,0,4,1.53
2013-6-21,63.9,56.5,51.0,52.1,50.3,48.9,94,81,65,30.07,30.02,2,0,6,0.02
2013-6-22,74.0,62.6,50.8,54.7,50.8,48.4,92,68,44,30.02,29.72,6,1,8,0.00
2013-6-23,67.6,62.8,57.2,60.1,56.6,52.4,90,80,71,29.71,29.43,3,0,3,0.04
2013-6-24,63.7,59.5,55.6,59.2,54.9,52.1,93,85,67,29.57,29.42,6,2,11,0.26
2013-6-25,70.3,59.5,54.4,56.6,53.9,51.3,92,82,57,29.73,29.54,5,2,9,0.74
2013-6-26,68.3,61.0,55.1,58.6,54.8,51.6,92,81,63,29.95,29.72,7,2,10,0.02
2013-6-27,69.1,62.8,57.3,60.9,57.3,54.0,92,83,71,30.07,29.92,6,1,8,0.06
2013-6-28,84.0,69.9,59.5,64.1,60.6,56.9,93,74,46,30.07,29.88,8,1,8,0.00
2013-6-29,80.3,70.1,62.0,63.2,60.4,57.8,90,73,53,29.94,29.84,4,1,6,0.00
2013-6-30,86.1,73.1,62.0,67.0,62.2,58.3,91,71,51,29.86,29.68,6,1,7,0.00
2013-7-1,80.3,70.8,62.1,62.9,58.9,54.5,79,66,54,29.84,29.74,5,1,7,0.00
2013-7-2,75.8,65.6,56.0,60.1,54.4,50.5,87,69,44,29.96,29.88,5,1,8,0.00
2013-7-3,71.5,63.4,53.1,54.3,50.0,45.0,80,63,48,30.03,29.93,8,2,12,0.00
2013-7-4,67.9,60.0,53.3,52.8,49.9,46.2,84,70,53,30.01,29.90,6,1,8,0.00
2013-7-5,70.8,61.1,52.0,54.4,51.6,48.3,88,72,54,29.92,29.82,5,1,7,0.00
2013-7-6,72.0,61.2,53.9,56.9,53.2,50.7,89,76,56,29.84,29.73,2,1,11,0.00
2013-7-7,75.3,65.3,56.0,56.7,53.2,48.5,85,66,40,29.79,29.73,7,2,10,0.00
2013-7-8,75.4,62.8,54.7,57.8,54.5,51.8,90,76,53,29.96,29.80,5,2,7,0.00
2013-7-9,76.8,66.1,56.0,60.9,56.1,48.9,92,71,55,29.96,29.87,7,1,10,0.00
2013-7-10,69.9,62.7,53.6,55.8,51.9,46.6,77,68,58,29.93,29.83,7,1,10,0.00
2013-7-11,66.6,58.6,52.0,49.5,46.6,44.3,78,66,48,29.97,29.88,2,0,6,0.00
2013-7-12,64.3,55.7,48.8,50.6,47.4,43.7,87,74,61,29.99,29.90,3,1,7,0.00
2013-7-13,73.7,60.3,47.9,51.4,47.8,43.3,91,66,43,30.09,29.99,7,1,9,0.00
2013-7-14,76.3,63.0,51.3,54.2,48.8,41.5,87,63,38,30.02,29.87,9,2,10,0.00
2013-7-15,77.7,63.5,49.9,53.3,48.6,45.6,86,61,37,29.92,29.76,8,2,13,0.00
2013-7-16,83.4,69.3,56.7,59.2,53.2,47.8,79,58,35,29.77,29.65,3,1,9,0.00
2013-7-17,67.9,64.5,59.9,57.7,55.8,53.2,85,73,60,30.06,29.69,7,2,9,0.03
2013-7-18,72.3,62.5,55.4,57.2,54.2,51.0,85,75,58,30.11,30.00,7,1,12,0.00
2013-7-19,73.9,61.4,52.6,59.2,54.6,50.5,94,80,60,30.06,29.91,6,1,10,0.00
2013-7-20,72.3,58.6,51.4,57.7,53.5,49.5,94,84,60,29.98,29.84,3,0,7,0.00
2013-7-21,74.6,61.0,51.4,59.4,55.0,49.2,94,82,56,29.85,29.76,5,1,6,0.00
2013-7-22,74.0,62.4,54.1,59.4,55.7,51.9,94,80,58,29.94,29.81,5,1,8,0.00
2013-7-23,80.1,64.0,52.6,60.2,54.9,50.3,92,74,47,29.93,29.83,8,2,11,0.00
2013-7-24,77.2,65.5,54.8,56.7,53.3,48.5,87,66,49,29.91,29.86,8,2,10,0.00
2013-7-25,78.3,66.1,57.8,57.4,51.8,45.9,71,61,41,29.98,29.90,6,1,9,0.00
2013-7-26,80.5,65.3,51.9,53.8,49.4,42.2,86,59,34,30.03,29.95,8,2,10,0.00
2013-7-27,73.7,61.4,51.3,53.1,49.5,46.0,83,66,44,30.03,29.86,7,1,11,0.00
2013-7-28,71.1,61.1,52.5,54.4,51.6,48.5,89,72,53,29.89,29.82,5,1,12,0.00
2013-7-29,71.5,61.7,56.0,54.5,52.3,50.8,83,72,54,29.88,29.81,3,1,7,0.00
2013-7-30,74.6,63.9,56.5,57.3,54.8,52.4,90,74,51,30.00,29.88,6,1,7,0.00
2013-7-31,66.8,59.3,53.2,59.9,55.4,50.9,93,87,71,30.00,29.86,3,1,8,0.04
2013-8-1,61.5,58.7,55.7,57.9,54.8,53.7,94,87,79,29.95,29.90,2,1,7,0.00
2013-8-2,59.3,57.5,56.2,56.1,54.6,52.0,93,90,81,30.02,29.94,5,1,7,0.63
2013-8-3,70.4,62.2,57.6,58.7,56.9,55.4,94,84,64,30.02,29.92,5,1,8,0.02
2013-8-4,77.0,64.6,55.9,61.6,57.0,53.6,93,78,58,29.94,29.80,7,1,8,0.00
2013-8-5,78.3,66.6,57.0,59.0,55.8,49.7,91,70,50,29.87,29.78,9,1,10,0.00
2013-8-6,80.3,66.6,55.6,57.0,53.7,49.9,90,66,38,29.85,29.77,5,1,9,0.00
2013-8-7,79.4,67.3,54.8,57.1,53.4,51.0,87,63,39,29.87,29.80,6,2,10,0.00
2013-8-8,74.4,64.7,56.0,58.4,54.6,49.9,91,71,54,29.89,29.81,6,1,13,0.00
2013-8-9,78.5,66.4,55.1,58.4,54.1,48.0,82,66,50,29.82,29.68,5,1,8,0.00
2013-8-10,76.5,66.7,60.4,62.6,59.5,55.3,93,79,59,29.86,29.70,8,2,15,0.13
2013-8-11,72.3,62.5,56.9,59.5,56.3,52.8,93,81,59,29.93,29.85,3,0,7,0.06
2013-8-12,73.7,63.2,56.0,57.5,54.4,51.9,88,74,53,29.95,29.87,6,1,11,0.00
2013-8-13,77.7,65.1,55.0,57.0,54.2,51.8,91,70,45,29.98,29.78,5,1,11,0.00
2013-8-14,63.9,59.6,57.8,60.0,55.7,54.5,89,87,84,29.79,29.78,0,0,2,0.00
2013-8-15,68.6,65.0,62.3,63.9,61.5,59.4,93,89,77,29.85,29.75,5,0,8,0.18
2013-8-16,81.8,69.3,61.6,63.8,59.8,55.9,94,75,42,29.86,29.78,3,0,8,0.00
2013-8-17,74.4,66.2,59.2,58.3,56.2,53.8,84,71,56,29.93,29.84,6,1,11,0.00
2013-8-18,72.0,64.0,58.0,57.8,54.4,49.8,87,72,58,29.99,29.94,5,1,10,0.00
2013-8-19,74.6,64.7,57.8,56.9,52.6,47.6,82,66,51,29.98,29.93,6,1,10,0.00
2013-8-20,74.9,62.8,53.6,54.4,50.9,48.4,87,67,43,30.06,29.94,13,2,13,0.00
2013-8-21,78.8,64.0,52.2,55.5,51.5,48.4,91,67,42,29.97,29.80,6,1,12,0.00
2013-8-22,80.5,68.1,56.7,57.2,54.7,48.7,90,64,44,29.80,29.64,3,1,7,0.00
2013-8-23,70.4,64.9,59.6,56.0,55.0,53.4,82,71,58,29.75,29.65,3,1,12,0.00
2013-8-24,69.8,61.7,55.7,58.8,55.2,50.6,92,80,56,29.79,29.71,3,0,7,0.09
2013-8-25,68.6,60.3,52.8,56.2,53.1,49.7,90,78,63,29.82,29.73,6,1,11,0.00
2013-8-26,74.0,63.5,58.6,56.3,55.1,54.0,89,75,53,29.81,29.70,8,2,13,0.03
2013-8-27,76.5,65.8,59.8,59.1,56.6,54.4,87,73,53,29.81,29.64,7,1,8,0.02
2013-8-28,78.1,66.8,58.6,63.6,58.9,55.1,93,77,53,29.74,29.66,5,1,7,0.20
2013-8-29,72.7,64.7,62.7,62.1,60.8,59.8,93,88,65,29.86,29.70,6,2,14,0.78
2013-8-30,75.4,66.0,58.7,61.0,55.8,52.4,91,72,45,30.02,29.88,7,2,14,0.00
2013-8-31,78.3,64.1,53.5,59.2,55.2,50.6,92,74,52,29.95,29.69,7,1,10,0.00
2013-9-1,79.2,67.1,58.4,60.2,57.6,54.0,92,73,51,29.73,29.63,4,1,10,0.00
2013-9-2,78.1,67.9,60.4,58.4,56.1,53.9,86,67,47,29.78,29.69,6,1,14,0.00
2013-9-3,72.0,62.8,58.1,62.2,58.5,55.2,94,86,68,29.89,29.78,2,0,7,0.23
2013-9-4,66.8,60.8,56.0,60.1,57.8,54.3,94,90,79,29.92,29.87,4,0,7,0.00
2013-9-5,64.8,60.3,57.3,60.7,57.6,55.5,94,91,86,29.91,29.80,6,1,11,0.67
2013-9-6,69.6,62.4,58.7,61.7,58.6,57.0,94,88,71,29.98,29.81,6,1,10,0.70
2013-9-7,69.9,63.5,59.5,60.0,58.1,56.6,93,83,67,29.98,29.88,6,1,12,0.06
2013-9-8,74.2,63.7,55.7,61.2,57.7,54.0,94,82,61,29.99,29.89,6,1,10,0.01
2013-9-9,74.0,62.6,53.6,60.6,56.9,51.9,94,83,63,29.94,29.85,4,1,10,0.00
2013-9-10,76.8,63.0,54.7,63.7,57.5,53.0,94,84,63,29.88,29.74,6,1,10,0.10
2013-9-11,88.8,72.3,59.6,65.1,61.2,57.6,93,71,42,29.80,29.70,3,0,6,0.00
2013-9-12,75.4,66.1,57.8,61.2,58.1,55.2,91,76,58,29.84,29.74,5,1,10,0.00
2013-9-13,62.4,60.0,55.7,59.4,57.6,54.0,94,92,89,29.84,29.74,2,0,4,0.00
2013-9-14,63.7,61.6,60.2,59.7,58.7,58.1,93,90,85,29.75,29.60,3,0,6,0.02
2013-9-15,62.3,60.2,57.2,60.4,58.4,55.8,95,94,92,29.67,29.57,3,1,7,0.23
2013-9-16,61.0,58.7,53.5,58.5,56.1,51.5,94,91,87,29.82,29.67,6,2,10,0.36
2013-9-17,57.3,55.4,53.6,53.6,52.3,51.4,93,89,83,29.82,29.76,2,0,6,0.07
2013-9-18,66.0,57.0,52.0,54.0,50.8,47.3,94,81,57,29.97,29.83,5,1,7,0.09
2013-9-19,79.9,63.1,48.3,49.9,45.9,42.7,85,58,30,29.94,29.60,5,2,10,0.00
2013-9-20,74.2,63.8,56.3,54.0,47.6,41.0,90,57,42,29.59,29.41,7,2,14,0.12
2013-9-21,66.9,59.6,55.4,54.1,52.1,49.2,91,77,53,29.57,29.47,5,1,10,0.00
2013-9-22,58.0,55.8,53.1,52.4,50.5,46.3,90,83,68,29.59,29.44,10,3,14,0.17
2013-9-23,57.5,53.6,49.2,51.9,49.5,47.5,94,86,75,29.86,29.61,7,2,13,1.03
2013-9-24,56.2,51.2,48.6,51.6,48.1,46.6,94,89,75,29.86,29.73,3,1,8,0.62
2013-9-25,55.1,50.3,46.8,50.7,47.3,44.9,94,89,80,29.94,29.75,5,1,7,0.04
2013-9-26,59.9,51.3,46.1,48.1,46.2,44.2,93,84,64,30.05,29.94,5,1,11,0.00
2013-9-27,53.8,51.0,48.5,50.0,47.3,44.2,92,87,81,30.02,29.75,6,3,11,0.20
2013-9-28,58.0,53.7,50.1,55.7,51.0,47.6,93,90,85,29.73,29.21,10,4,11,0.84
2013-9-29,52.0,50.6,49.8,47.9,47.0,45.3,90,87,80,29.44,29.25,16,6,16,0.25
2013-9-30,55.0,51.5,48.6,48.2,45.1,42.7,84,79,71,29.81,29.59,8,4,12,0.00
2013-10-1,55.0,49.0,45.5,44.9,42.8,39.9,90,79,64,30.03,29.81,8,2,10,0.08
2013-10-2,50.5,48.5,46.5,47.0,45.2,44.0,93,88,81,30.09,29.98,5,1,5,0.15
2013-10-3,56.5,49.5,46.1,46.0,44.9,43.2,94,85,66,30.38,30.11,2,0,6,0.00
2013-10-4,66.8,52.5,41.6,46.8,43.2,39.2,91,73,42,30.42,30.26,5,1,7,0.00
2013-10-5,68.3,56.0,45.8,48.9,44.6,40.3,81,67,47,30.27,30.02,4,1,6,0.00
2013-10-6,76.0,62.0,52.9,48.0,43.2,34.3,75,54,22,30.00,29.75,7,2,8,0.01
2013-10-7,53.6,50.7,48.9,49.4,48.0,46.5,93,90,83,29.93,29.74,7,2,11,0.88
2013-10-8,54.8,49.1,43.1,48.8,45.1,40.9,94,87,64,30.00,29.86,3,0,9,0.23
2013-10-9,56.9,46.8,38.5,44.6,40.7,36.7,94,80,60,30.08,29.86,4,1,6,0.00
2013-10-10,54.8,49.3,45.2,46.9,44.2,42.2,91,83,71,29.98,29.84,3,0,5,0.00
2013-10-11,53.8,49.0,45.7,47.8,45.7,43.8,94,88,76,30.06,29.98,3,0,5,0.02
2013-10-12,55.0,48.8,45.5,48.0,44.3,42.5,93,85,68,30.14,29.98,8,1,8,0.03
2013-10-13,55.6,47.0,42.9,45.8,43.2,41.0,94,87,69,30.30,30.15,3,0,5,0.00
2013-10-14,56.5,46.9,40.1,45.8,42.5,38.2,93,85,67,30.37,30.30,2,0,7,0.00
2013-10-15,59.2,49.6,43.1,47.0,43.7,40.8,93,81,58,30.32,30.08,4,0,5,0.02
2013-10-16,49.4,46.7,42.5,46.9,44.4,40.9,94,92,87,30.13,30.06,2,0,4,0.00
2013-10-17,56.7,48.7,44.6,47.5,45.0,42.7,93,87,71,30.21,30.13,2,0,6,0.00
2013-10-18,56.2,47.7,39.9,48.4,44.1,38.0,94,88,74,30.18,30.08,4,1,7,0.00
2013-10-19,46.7,42.9,37.3,45.3,41.3,35.7,95,94,93,30.14,30.07,0,0,3,0.01
2013-10-20,46.2,44.6,42.5,44.8,43.3,41.2,95,95,94,30.15,30.09,2,0,3,0.01
2013-10-21,48.2,45.2,42.3,46.8,43.9,41.0,95,95,95,30.11,30.03,1,0,3,0.01
2013-10-22,49.2,46.0,42.9,47.8,44.6,41.6,95,95,95,30.05,29.96,2,0,3,0.02
2013-10-23,60.5,47.5,37.3,51.4,44.6,36.0,95,90,71,29.98,29.89,3,0,5,0.00
2013-10-24,49.8,44.5,38.5,46.1,42.8,36.9,95,94,87,30.06,29.92,3,0,6,0.01
2013-10-25,48.2,46.7,45.5,46.8,45.1,44.2,95,94,92,30.25,30.06,2,0,4,0.02
2013-10-26,49.5,47.0,45.2,44.6,43.8,43.3,93,89,81,30.27,30.13,2,0,3,0.00
2013-10-27,56.2,47.5,44.2,48.0,44.4,42.3,94,89,72,30.11,29.79,3,1,7,0.24
2013-10-28,59.8,48.1,41.1,42.3,37.2,32.1,93,69,35,29.87,29.78,6,0,8,0.00
2013-10-29,55.4,45.0,37.0,37.8,34.7,31.7,82,68,46,29.96,29.86,5,2,6,0.00
2013-10-30,53.3,47.0,40.6,44.8,38.3,33.3,90,72,58,30.06,29.96,7,3,10,0.02
2013-10-31,50.4,48.3,46.1,48.7,46.1,42.1,94,92,83,30.18,30.02,6,1,8,0.19
2013-11-1,57.8,52.7,49.1,52.0,48.7,45.3,93,86,72,30.20,29.73,3,1,7,0.02
2013-11-2,50.8,46.2,41.1,48.0,43.5,39.0,93,90,80,29.80,29.34,12,3,20,1.74
2013-11-3,47.0,40.5,34.9,42.4,37.8,32.5,94,90,81,30.05,29.82,5,1,6,0.20
2013-11-4,47.1,39.3,32.8,37.8,33.6,30.2,90,80,59,30.16,30.02,4,1,8,0.10
2013-11-5,47.9,44.2,40.5,46.3,42.4,37.8,95,93,90,30.19,29.97,6,2,10,0.12
2013-11-6,50.2,45.3,40.6,45.8,42.0,39.0,95,88,78,30.27,29.95,6,1,14,0.09
2013-11-7,47.7,46.5,45.7,45.7,44.1,43.0,94,91,85,29.92,29.62,13,6,22,0.95
2013-11-8,52.0,46.5,43.5,45.4,43.0,39.6,94,88,75,30.09,29.90,3,1,8,0.14
2013-11-9,49.6,44.5,39.3,43.4,40.6,36.6,93,86,74,30.08,30.00,3,1,5,0.07
2013-11-10,46.5,44.8,43.1,44.9,43.2,41.4,95,94,93,30.09,30.03,1,0,4,0.12
2013-11-11,57.5,50.6,43.2,51.5,43.2,37.0,95,78,50,30.09,29.90,13,1,13,0.00
2013-11-12,55.6,53.1,48.6,51.5,46.6,37.8,93,80,51,30.27,29.93,7,2,13,0.12
2013-11-13,54.8,51.0,47.9,47.9,46.2,44.5,91,84,70,30.35,30.23,7,1,10,0.00
2013-11-14,47.0,45.2,41.6,45.4,43.5,40.0,94,94,92,30.21,29.99,3,0,3,0.32
2013-11-15,44.2,42.9,41.3,42.6,41.0,37.5,95,93,81,29.98,29.24,8,2,18,1.00
2013-11-16,44.3,40.4,37.0,41.2,37.5,35.2,94,89,84,29.69,29.26,3,1,15,0.67
2013-11-17,48.6,44.7,39.3,43.0,40.6,36.3,91,86,80,29.80,29.70,6,2,14,0.01
2013-11-18,49.5,47.9,46.2,47.8,45.4,42.1,94,91,85,29.80,29.44,7,3,13,0.37
2013-11-19,50.7,41.0,33.7,49.0,35.6,23.0,94,81,59,30.01,29.41,6,1,18,0.46
2013-11-20,40.9,32.9,28.2,28.9,26.0,23.5,89,76,57,30.50,30.04,5,0,7,0.00
2013-11-21,40.3,31.8,26.6,27.2,24.9,22.8,90,76,50,30.69,30.51,3,0,7,0.00
2013-11-22,44.6,34.4,27.9,28.1,25.5,22.4,84,71,52,30.65,30.44,1,0,5,0.00
2013-11-23,47.7,39.8,34.6,34.0,29.9,23.6,83,68,54,30.40,30.15,3,0,5,0.00
2013-11-24,47.1,39.6,33.7,35.4,33.0,29.7,87,77,62,30.21,30.12,3,1,5,0.00
2013-11-25,54.8,45.3,38.8,39.5,33.1,29.1,75,63,50,30.26,30.20,6,1,7,0.00
2013-11-26,57.6,46.5,40.2,36.5,30.9,26.6,70,55,32,30.19,30.02,5,2,8,0.00
2013-11-27,56.0,46.8,42.9,43.2,37.5,32.2,87,70,57,29.99,29.86,7,1,8,0.00
2013-11-28,53.8,46.0,41.2,37.6,34.3,31.3,76,64,48,30.10,29.94,6,1,7,0.00
2013-11-29,46.2,44.1,41.2,42.4,38.5,34.2,92,81,64,30.27,30.09,3,1,5,0.02
2013-11-30,48.2,46.3,44.2,45.8,42.2,39.9,93,86,75,30.26,30.01,6,2,11,0.19
2013-12-1,51.3,47.5,37.6,49.6,45.7,35.2,94,93,90,29.98,29.65,8,2,14,1.13
2013-12-2,37.9,35.4,33.4,35.2,33.1,31.6,93,91,86,30.01,29.73,3,1,10,0.07
2013-12-3,35.3,31.6,29.5,32.4,29.3,27.5,94,91,83,30.31,30.03,2,0,4,0.00
2013-12-4,35.9,29.3,25.6,27.7,24.2,21.7,91,82,61,30.35,30.28,2,0,5,0.00
2013-12-5,30.7,26.4,23.8,21.7,19.3,13.8,88,75,60,30.32,30.21,2,0,7,0.00
2013-12-6,30.4,23.4,18.4,14.1,9.6,5.3,74,56,37,30.27,30.17,10,1,11,0.00
2013-12-7,26.0,19.3,14.1,10.5,7.0,1.6,76,60,35,30.46,30.26,3,0,8,0.00
2013-12-8,30.6,22.8,15.7,14.5,12.5,9.6,78,65,47,30.60,30.46,6,0,6,0.00
2013-12-9,29.4,26.2,20.5,25.7,19.7,13.9,89,76,71,30.62,30.50,3,0,6,0.00
2013-12-10,35.9,32.7,28.4,31.0,28.7,23.8,90,85,79,30.51,30.41,2,0,6,0.00
2013-12-11,39.9,35.2,30.6,31.7,28.6,25.3,85,77,64,30.39,30.12,5,1,8,0.00
2013-12-12,44.8,40.4,36.0,39.9,33.5,29.3,89,77,57,30.09,30.00,15,3,15,0.11
2013-12-13,45.1,43.7,41.9,43.8,42.1,39.8,95,94,91,30.36,30.07,6,2,8,0.14
2013-12-14,47.0,45.4,42.8,43.5,41.6,40.6,94,87,80,30.38,30.27,6,3,11,0.00
2013-12-15,47.4,46.1,43.2,45.8,44.3,41.6,94,93,90,30.40,30.26,4,1,9,0.14
2013-12-16,48.6,41.4,35.9,43.4,38.6,33.8,94,90,79,30.46,30.22,3,0,5,0.00
2013-12-17,42.1,36.9,31.5,40.5,35.0,29.2,94,93,86,30.22,30.07,5,1,7,0.03
2013-12-18,42.1,37.8,30.0,40.5,34.8,27.8,94,89,75,30.12,29.97,3,0,7,0.02
2013-12-19,34.4,30.2,26.1,30.5,26.0,21.8,92,85,69,30.34,30.15,2,0,4,0.02
2013-12-20,38.2,33.7,29.1,36.6,30.9,21.5,94,90,67,30.20,29.67,6,2,17,0.98
2013-12-21,41.1,38.7,35.6,39.8,37.2,34.0,95,94,94,30.12,29.78,2,0,6,0.36
2013-12-22,47.0,44.1,40.3,45.7,42.7,39.0,95,95,94,30.23,30.11,6,2,11,0.74
2013-12-23,48.5,45.7,40.8,46.9,42.5,36.8,95,89,74,30.48,30.05,10,2,24,0.53
2013-12-24,45.4,39.5,32.9,39.0,36.2,30.3,93,88,77,30.59,30.48,3,0,7,0.07
2013-12-25,43.3,35.8,30.7,34.8,32.3,28.7,92,87,71,30.52,30.37,3,0,6,0.02
2013-12-26,49.2,40.3,35.0,38.7,35.3,31.2,91,83,67,30.36,30.15,3,0,6,0.00
2013-12-27,45.8,41.2,36.3,41.6,38.9,34.5,94,91,76,30.32,30.05,6,1,8,0.15
2013-12-28,44.9,41.9,38.3,43.0,40.1,36.7,94,93,89,30.48,30.32,0,0,5,0.00
2013-12-29,39.8,37.6,35.0,38.5,36.2,33.5,95,95,94,30.44,30.29,5,0,7,0.02
2013-12-30,43.5,42.1,38.5,41.9,40.0,37.2,95,92,90,30.27,30.09,0,0,6,0.05
2013-12-31,44.5,43.3,41.6,42.3,41.0,39.6,93,92,88,30.32,30.14,2,0,7,0.04
2014-1-1,44.5,40.2,35.6,40.6,38.0,33.8,93,92,84,30.36,30.21,3,0,6,0.02
2014-1-2,49.2,44.5,40.2,42.9,40.4,38.3,94,86,68,30.19,29.82,6,2,19,0.99